TimeEDT,TemperatureF,Dew PointF,Humidity,Sea Level PressureIn,VisibilityMPH,Wind Direction,Wind SpeedMPH,Gust SpeedMPH,PrecipitationIn,Events,Conditions,WindDirDegrees,DateUTC
12:28 AM,73.4,71.6,94,30.18,10.0,Calm,Calm,-,N/A,,Overcast,0,2013-07-03 04:28:00
12:54 AM,73.0,71.1,93,30.16,7.0,Calm,Calm,-,0.00,Rain,Light Rain,0,2013-07-03 04:54:00
1:18 AM,73.4,71.6,94,30.17,10.0,SE,3.5,-,0.00,,Overcast,130,2013-07-03 05:18:00
1:54 AM,73.0,71.1,93,30.15,10.0,SE,4.6,-,0.00,,Overcast,130,2013-07-03 05:54:00
2:47 AM,73.4,71.6,94,30.16,10.0,SSE,5.8,-,N/A,,Overcast,150,2013-07-03 06:47:00
2:54 AM,73.0,71.1,93,30.14,10.0,SSE,4.6,-,N/A,,Overcast,150,2013-07-03 06:54:00
3:40 AM,73.4,71.6,94,30.16,10.0,SSE,4.6,-,N/A,,Overcast,150,2013-07-03 07:40:00
3:49 AM,73.4,71.6,94,30.17,10.0,SSE,3.5,-,N/A,,Overcast,160,2013-07-03 07:49:00
3:54 AM,73.0,72.0,96,30.15,10.0,South,5.8,-,N/A,,Overcast,170,2013-07-03 07:54:00
4:12 AM,73.4,71.6,94,30.17,7.0,South,4.6,-,0.00,Rain,Light Rain,180,2013-07-03 08:12:00
4:20 AM,73.4,71.6,94,30.17,10.0,South,3.5,-,0.00,,Overcast,170,2013-07-03 08:20:00
4:54 AM,73.9,72.0,93,30.15,9.0,South,4.6,-,0.01,,Overcast,170,2013-07-03 08:54:00
5:54 AM,73.9,72.0,93,30.17,8.0,South,3.5,-,0.00,,Overcast,180,2013-07-03 09:54:00
6:36 AM,73.4,71.6,94,30.20,7.0,Calm,Calm,-,N/A,,Overcast,0,2013-07-03 10:36:00
6:54 AM,73.9,72.0,93,30.19,6.0,Calm,Calm,-,N/A,,Overcast,0,2013-07-03 10:54:00
7:10 AM,73.4,71.6,94,30.21,6.0,Calm,Calm,-,N/A,,Overcast,0,2013-07-03 11:10:00
7:18 AM,73.4,71.6,94,30.22,6.0,Calm,Calm,-,N/A,,Mostly Cloudy,0,2013-07-03 11:18:00
7:54 AM,75.0,73.0,94,30.22,6.0,Calm,Calm,-,N/A,,Overcast,0,2013-07-03 11:54:00
7:58 AM,75.2,73.4,94,30.23,7.0,South,3.5,-,N/A,,Overcast,170,2013-07-03 11:58:00
8:08 AM,75.2,73.4,94,30.23,7.0,South,3.5,-,N/A,,Overcast,180,2013-07-03 12:08:00
8:25 AM,75.2,73.4,94,30.24,8.0,South,3.5,-,N/A,,Overcast,180,2013-07-03 12:25:00
8:47 AM,77.0,73.4,89,30.24,9.0,Variable,3.5,-,N/A,,Overcast,0,2013-07-03 12:47:00
8:54 AM,77.0,73.0,88,30.22,10.0,South,5.8,-,N/A,,Overcast,190,2013-07-03 12:54:00
9:28 AM,75.2,73.4,94,30.23,0.8,Calm,Calm,-,0.13,Rain,Light Rain,0,2013-07-03 13:28:00
9:37 AM,75.2,73.4,94,30.23,0.8,Calm,Calm,-,0.15,Rain,Light Rain,0,2013-07-03 13:37:00
9:39 AM,75.2,73.4,94,30.23,2.5,Calm,Calm,-,0.15,Rain,Light Rain,0,2013-07-03 13:39:00
9:41 AM,75.2,73.4,94,30.23,5.0,Calm,Calm,-,0.15,Rain,Light Rain,0,2013-07-03 13:41:00
9:46 AM,75.2,73.4,94,30.23,1.8,Calm,Calm,-,0.18,Rain,Rain,0,2013-07-03 13:46:00
9:54 AM,75.9,73.0,91,30.22,1.0,South,3.5,-,0.24,Rain,Rain,180,2013-07-03 13:54:00
9:56 AM,75.2,73.4,94,30.23,0.5,Calm,Calm,-,0.09,Fog-Rain,Heavy Rain,0,2013-07-03 13:56:00
10:06 AM,75.2,73.4,94,30.24,1.0,South,6.9,-,0.17,Rain,Heavy Rain,190,2013-07-03 14:06:00
10:12 AM,75.2,73.4,94,30.24,3.0,SSW,5.8,-,0.17,Rain,Light Rain,200,2013-07-03 14:12:00
10:25 AM,73.4,69.8,88,30.26,1.8,SW,12.7,19.6,0.24,Rain,Heavy Rain,230,2013-07-03 14:25:00
10:37 AM,71.6,69.8,94,30.25,1.8,West,5.8,-,0.30,Rain,Rain,260,2013-07-03 14:37:00
10:42 AM,73.4,71.6,94,30.25,3.0,WSW,4.6,-,0.31,Rain,Light Rain,250,2013-07-03 14:42:00
10:54 AM,75.0,71.1,87,30.24,10.0,WSW,3.5,-,0.31,,Mostly Cloudy,240,2013-07-03 14:54:00
11:24 AM,77.0,71.6,83,30.24,10.0,Calm,Calm,-,N/A,,Scattered Clouds,0,2013-07-03 15:24:00
11:54 AM,79.0,75.0,88,30.22,5.0,Variable,3.5,-,0.03,Rain,Light Rain,0,2013-07-03 15:54:00
12:54 PM,80.1,73.9,81,30.21,5.0,Calm,Calm,-,0.02,,Haze,0,2013-07-03 16:54:00
1:03 PM,78.8,73.4,83,30.22,2.5,Calm,Calm,-,0.01,Rain,Light Rain,0,2013-07-03 17:03:00
1:10 PM,78.8,75.2,89,30.23,5.0,SSE,3.5,-,0.02,Rain,Light Rain,150,2013-07-03 17:10:00
1:54 PM,77.0,73.9,90,30.20,10.0,ESE,6.9,-,0.02,,Scattered Clouds,110,2013-07-03 17:54:00
2:54 PM,75.0,72.0,90,30.22,8.0,SE,5.8,-,0.01,Rain,Light Rain,130,2013-07-03 18:54:00
3:54 PM,73.0,71.1,93,30.20,6.0,SE,3.5,-,0.04,Rain,Light Rain,140,2013-07-03 19:54:00
4:49 PM,75.2,73.4,94,30.22,10.0,Variable,4.6,-,0.01,,Partly Cloudy,0,2013-07-03 20:49:00
4:54 PM,77.0,73.0,88,30.19,10.0,SE,3.5,-,0.01,,Partly Cloudy,140,2013-07-03 20:54:00
5:54 PM,80.1,73.0,79,30.19,10.0,SSE,3.5,-,N/A,,Partly Cloudy,160,2013-07-03 21:54:00
6:54 PM,79.0,73.0,82,30.19,10.0,East,4.6,-,N/A,,Scattered Clouds,100,2013-07-03 22:54:00
7:08 PM,78.8,73.4,83,30.21,10.0,SE,5.8,-,N/A,,Mostly Cloudy,130,2013-07-03 23:08:00
7:24 PM,78.8,73.4,83,30.22,10.0,SE,3.5,-,N/A,,Scattered Clouds,130,2013-07-03 23:24:00
7:54 PM,77.0,73.0,88,30.21,10.0,ESE,3.5,-,N/A,,Partly Cloudy,110,2013-07-03 23:54:00
8:54 PM,75.0,72.0,90,30.21,10.0,Calm,Calm,-,N/A,,Partly Cloudy,0,2013-07-04 00:54:00
9:54 PM,75.0,73.0,94,30.22,10.0,SE,3.5,-,N/A,,Mostly Cloudy,130,2013-07-04 01:54:00
10:31 PM,75.2,73.4,94,30.25,10.0,ESE,3.5,-,0.00,Rain,Light Rain,120,2013-07-04 02:31:00
10:54 PM,75.0,73.0,94,30.23,9.0,ESE,3.5,-,0.00,,Mostly Cloudy,120,2013-07-04 02:54:00
11:25 PM,73.4,73.4,100,30.25,9.0,ESE,4.6,-,N/A,,Scattered Clouds,120,2013-07-04 03:25:00
11:54 PM,73.9,72.0,93,30.24,10.0,SE,4.6,-,N/A,,Partly Cloudy,130,2013-07-04 03:54:00